[[{"header":{"parameterUnit":"m.s-1","parameterCategory":1,"la1":30.2991,"la2":30.254,"lo1":-89.0895,"lo2":-89.0444,"dy":0.0017,"dx":0.0017,"nx":28,"ny":28,"refTime":"2024-03-27T21:00:00:Z","depth":0,"parameterNumber":2,"parameterNumberName":"U-component_of_WINDS"},"data":[0,0,0,0,0,0,0,0,0,0,0,0,0,0,0,0,0,0,0,0,0,0,0,0,0,0,0,0,0,0,0,0,0,0,0,0,0,0,0,0,0,0,0,0,0,0,0,0,0,0,0,0,0,0,0,0,0,0,-1.7435,-1.7435,0,-1.7507,-1.7507,-1.7508,-1.7494,-1.7492,-1.7491,-1.749,-1.7564,-1.7568,-1.7571,0,0,0,0,0,0,0,0,0,0,0,0,0,-1.7285,-1.7288,-1.7435,-1.7435,-1.7436,-1.7506,-1.7507,-1.7508,-1.7494,-1.7492,-1.7491,-1.7489,-1.7563,-1.7567,-1.7571,0,0,0,0,0,0,0,0,0,0,0,0,0,-1.7353,-1.7289,-1.7434,-1.7437,-1.7438,-1.7506,-1.7507,-1.7509,-1.7494,-1.7492,-1.749,-1.7488,-1.7562,-1.7567,-1.7572,-1.7641,0,0,-1.7586,-1.7588,0,0,0,0,0,0,0,0,-1.7349,-1.7358,-1.7436,-1.7437,-1.7439,-1.7489,-1.7482,-1.7553,-1.7495,-1.7473,-1.749,-1.7487,-1.7541,-1.7547,-1.7565,-1.7644,-1.7648,-1.7587,-1.759,-1.7592,-1.7593,0,0,0,0,0,0,0,-1.7344,-1.7355,-1.7463,-1.7437,-1.7439,-1.7435,-1.7443,-1.7495,-1.7517,-1.7475,-1.7474,-1.7483,-1.7541,-1.7561,-1.7567,-1.7649,-1.7587,-1.7591,-1.7594,-1.7596,-1.7789,-1.7791,0,0,0,0,0,0,-1.7338,-1.7351,-1.7461,-1.7465,-1.7388,-1.744,-1.7448,-1.7475,-1.7517,-1.7521,-1.7484,-1.7482,-1.7553,-1.7561,-1.757,-1.7654,-1.7592,-1.7596,-1.7599,-1.7787,-1.7789,-1.7792,0,0,0,0,0,0,-1.7335,-1.7348,-1.7458,-1.7408,-1.7422,-1.7444,-1.7475,-1.7477,-1.7497,-1.7524,-1.7528,-1.75,-1.7552,-1.7563,-1.7623,-1.7657,-1.7598,-1.7603,-1.7784,-1.7787,-1.7791,-1.7824,0,0,0,0,0,0,-1.7331,-1.7347,-1.7374,-1.7409,-1.7424,-1.7511,-1.7477,-1.748,-1.7505,-1.7502,-1.754,-1.7544,-1.7551,-1.7616,-1.7628,-1.7662,-1.7607,-1.7781,-1.7786,-1.7789,-1.782,-1.7828,-1.7835,0,0,0,0,0,-1.7326,-1.738,-1.7375,-1.7388,-1.7458,-1.7512,-1.7521,-1.7529,-1.7508,-1.7535,-1.7552,-1.7543,-1.7651,-1.7623,-1.7636,-1.7672,-1.7779,-1.7784,-1.7789,-1.7817,-1.7826,-1.7835,0,0,0,0,0,0,-1.7349,-1.7385,-1.738,-1.7447,-1.7477,-1.751,-1.7544,-1.7539,-1.7575,-1.7571,-1.7579,-1.7587,-1.7649,-1.7666,-1.7634,-1.7741,-1.7712,-1.772,-1.7728,-1.7738,-1.7745,-1.774,-1.7611,0,0,0,0,0,-1.7362,-1.7403,-1.7432,-1.7489,-1.7504,-1.7522,-1.7546,-1.7549,-1.758,-1.7592,-1.7614,-1.7645,-1.7685,-1.7712,-1.7751,-1.7822,-1.783,-1.7853,-1.786,-1.7866,-1.7874,-1.7913,-1.7924,-1.7808,-1.7808,-1.7808,0,0,-1.739,-1.7414,-1.744,-1.7495,-1.7518,-1.756,-1.7532,-1.7579,-1.761,-1.7599,-1.7658,-1.7675,-1.771,-1.7776,-1.7806,-1.7792,-1.7907,-1.7873,-1.7877,-1.7882,-1.7919,-1.793,-1.794,-1.7812,-1.7811,-1.7811,0,0,-1.7462,-1.7484,-1.7535,-1.7558,-1.7594,-1.7605,-1.7617,-1.765,-1.7661,-1.772,-1.7713,-1.775,-1.782,-1.7846,-1.7868,-1.7949,-1.7942,-1.7961,-1.8001,-1.8039,-1.8048,-1.8056,-1.8086,-1.8096,-1.7968,-1.7968,-1.7968,0,-1.7492,-1.7556,-1.7561,-1.7608,-1.7633,-1.7624,-1.7675,-1.7698,-1.7744,-1.7761,-1.7745,-1.7832,-1.7855,-1.7927,-1.7947,-1.7964,-1.7979,-1.7958,-1.8046,-1.8054,-1.8062,-1.809,-1.8101,-1.797,-1.797,-1.797,-1.7969,0,-1.7591,-1.7636,-1.7672,-1.7717,-1.7745,-1.7794,-1.7807,-1.7835,-1.7835,-1.7848,-1.7908,-1.7935,-1.7979,-1.7996,-1.7997,-1.8068,-1.8059,-1.8044,-1.8015,-1.8075,-1.8102,-1.8113,-1.7973,-1.7972,-1.7972,-1.7971,0,0,-1.7682,-1.7729,-1.7742,-1.7763,-1.78,-1.7835,-1.7883,-1.7926,-1.795,-1.7982,-1.8024,-1.8082,-1.8069,-1.8094,-1.8097,-1.813,-1.8194,-1.8111,-1.8112,-1.8127,-1.8275,-1.8287,-1.83,-1.8188,-1.819,-1.8192,-1.8273,0,-1.7759,-1.7844,-1.785,-1.7927,-1.7969,-1.796,-1.8002,-1.803,-1.8043,-1.808,-1.8094,-1.8136,-1.8115,-1.813,-1.8162,-1.8179,-1.8224,-1.8173,-1.8228,-1.823,-1.8221,-1.8314,-1.8327,-1.8402,-1.8283,-1.8285,-1.8286,0,-1.7861,-1.7895,-1.7977,-1.8009,-1.8026,-1.8064,-1.8104,-1.8139,-1.817,-1.8177,-1.8205,-1.8203,-1.8253,-1.8221,-1.829,-1.8255,-1.8277,-1.8289,-1.8292,-1.8299,-1.8263,-1.8324,-1.8425,-1.8437,-1.8303,-1.8301,-1.83,0,-1.792,-1.7987,-1.8045,-1.8062,-1.8101,-1.8128,-1.8145,-1.8174,-1.82,-1.8234,-1.8251,-1.8291,-1.8313,-1.8344,-1.8354,-1.8329,-1.8423,-1.8391,-1.8431,-1.8431,-1.8452,-1.8451,-1.856,-1.8464,-1.8464,-1.8464,-1.8464,0,-1.8006,-1.8057,-1.8072,-1.8108,-1.8164,-1.817,-1.8225,-1.8241,-1.8267,-1.8305,-1.83,-1.8336,-1.8345,-1.8383,-1.8391,-1.8447,-1.8457,-1.8465,-1.8466,-1.8466,-1.8465,-1.8482,-1.8478,-1.8467,-1.8466,-1.8466,-1.8465,0,-1.8084,-1.8096,-1.8158,-1.8189,-1.8198,-1.8238,-1.8265,-1.8299,-1.831,-1.8359,-1.8371,-1.839,-1.8434,-1.8446,-1.8499,-1.8504,-1.8571,-1.8567,-1.8561,-1.8561,-1.8601,-1.8597,-1.8725,-1.8743,-1.8634,-1.8635,-1.8636,0,-1.8139,-1.8177,-1.8212,-1.8237,-1.8256,-1.8297,-1.8322,-1.8329,-1.8356,-1.8395,-1.8424,-1.8468,-1.8504,-1.8575,-1.8593,-1.8634,-1.8632,-1.8674,-1.8638,-1.8637,-1.8634,-1.8632,-1.8637,-1.8681,-1.8682,-1.8683,-1.8684,0,-1.8235,-1.8239,-1.8277,-1.8316,-1.8347,-1.8379,-1.8409,-1.843,-1.8441,-1.8472,-1.8517,-1.8545,-1.8599,-1.8642,-1.8683,-1.8701,-1.8695,-1.8695,-1.8707,-1.8708,-1.8703,-1.8707,-1.8581,-1.8692,-1.8692,-1.8691,-1.8691,-1.869,-1.8304,-1.8338,-1.8368,-1.841,-1.8433,-1.8461,-1.8495,-1.8511,-1.8549,-1.8593,-1.8594,-1.8644,-1.8674,-1.8728,-1.8748,-1.8787,-1.8774,-1.8791,-1.8796,-1.88,-1.8804,-1.8695,-1.8794,-1.8794,-1.8794,-1.8794,-1.8793,0,-1.8402,-1.842,-1.8459,-1.8501,-1.8534,-1.8524,-1.8557,-1.8585,-1.8629,-1.8657,-1.8692,-1.8744,-1.8786,-1.8807,-1.8849,-1.8876,-1.8874,-1.8887,-1.8886,-1.889,-1.8812,-1.8799,-1.8888,-1.8888,-1.8888,-1.8888,-1.8888,-1.8888,-1.8457,-1.8514,-1.8521,-1.859,-1.8608,-1.8657,-1.8676,-1.8702,-1.8725,-1.8783,-1.8818,-1.8831,-1.8857,-1.89,-1.8938,-1.8944,-1.896,-1.8974,-1.8978,-1.8905,-1.8896,-1.8887,-1.8874,-1.8977,-1.8978,-1.9053,-1.9054,-1.9055]},{"header":{"parameterUnit":"m.s-1","parameterCategory":1,"la1":30.2991,"la2":30.254,"lo1":-89.0895,"lo2":-89.0444,"dy":0.0017,"dx":0.0017,"nx":28,"ny":28,"refTime":"2024-03-27T21:00:00:Z","depth":0,"parameterNumber":3,"parameterNumberName":"V-component_of_WINDS"},"data":[0,0,0,0,0,0,0,0,0,0,0,0,0,0,0,0,0,0,0,0,0,0,0,0,0,0,0,0,0,0,0,0,0,0,0,0,0,0,0,0,0,0,0,0,0,0,0,0,0,0,0,0,0,0,0,0,0,0,-6.051,-6.051,0,-6.0514,-6.0514,-6.0514,-6.0442,-6.044,-6.0438,-6.0436,-6.0438,-6.044,-6.0442,0,0,0,0,0,0,0,0,0,0,0,0,0,-6.0439,-6.0441,-6.051,-6.051,-6.051,-6.0514,-6.0514,-6.0514,-6.0442,-6.044,-6.0437,-6.0435,-6.0437,-6.044,-6.0442,0,0,0,0,0,0,0,0,0,0,0,0,0,-6.0459,-6.0441,-6.051,-6.0475,-6.0472,-6.0514,-6.0514,-6.0514,-6.0442,-6.044,-6.0437,-6.0434,-6.0437,-6.0439,-6.0442,-6.0518,0,0,-6.0451,-6.0452,0,0,0,0,0,0,0,0,-6.0458,-6.0462,-6.048,-6.0477,-6.0474,-6.0474,-6.049,-6.0515,-6.0443,-6.0454,-6.0436,-6.0432,-6.0452,-6.0454,-6.0461,-6.0518,-6.0518,-6.0451,-6.0453,-6.0454,-6.0455,0,0,0,0,0,0,0,-6.0457,-6.0461,-6.0511,-6.048,-6.0477,-6.0458,-6.0458,-6.0494,-6.0469,-6.0452,-6.0447,-6.0449,-6.045,-6.0458,-6.046,-6.0518,-6.0451,-6.0453,-6.0455,-6.0456,-6.0638,-6.0641,0,0,0,0,0,0,-6.046,-6.0461,-6.0511,-6.0512,-6.0459,-6.0462,-6.0461,-6.0477,-6.0469,-6.0465,-6.0451,-6.0445,-6.0455,-6.0457,-6.046,-6.0549,-6.0454,-6.0457,-6.0458,-6.0635,-6.0639,-6.0643,0,0,0,0,0,0,-6.0459,-6.0466,-6.0511,-6.0485,-6.0489,-6.0466,-6.0484,-6.0479,-6.0487,-6.0468,-6.0463,-6.0464,-6.0453,-6.0456,-6.0504,-6.0548,-6.0458,-6.046,-6.0632,-6.0637,-6.0641,-6.0727,0,0,0,0,0,0,-6.0458,-6.0466,-6.0495,-6.0486,-6.0491,-6.0556,-6.0487,-6.0481,-6.0492,-6.0484,-6.0479,-6.0475,-6.0451,-6.0501,-6.0507,-6.055,-6.0463,-6.0628,-6.0634,-6.0639,-6.072,-6.0734,-6.0745,0,0,0,0,0,-6.0455,-6.0518,-6.0496,-6.0503,-6.0527,-6.0559,-6.0561,-6.0533,-6.0496,-6.0524,-6.0512,-6.0475,-6.0542,-6.0506,-6.0513,-6.0557,-6.0625,-6.0632,-6.0639,-6.0714,-6.0731,-6.0745,0,0,0,0,0,0,-6.0531,-6.0516,-6.0492,-6.0554,-6.0558,-6.0547,-6.0582,-6.0552,-6.0566,-6.0558,-6.0522,-6.0521,-6.0575,-6.0571,-6.0531,-6.063,-6.0577,-6.0586,-6.0631,-6.0647,-6.066,-6.066,-6.0465,0,0,0,0,0,-6.0555,-6.0583,-6.0568,-6.0624,-6.0628,-6.0605,-6.0618,-6.0595,-6.0598,-6.06,-6.0591,-6.0595,-6.0616,-6.0632,-6.065,-6.0719,-6.0717,-6.0753,-6.0765,-6.0776,-6.0784,-6.0821,-6.0837,-6.0666,-6.0666,-6.0666,0,0,-6.0605,-6.06,-6.062,-6.064,-6.064,-6.067,-6.0607,-6.064,-6.0662,-6.0604,-6.065,-6.0644,-6.0645,-6.0704,-6.073,-6.0702,-6.0831,-6.0785,-6.0794,-6.0796,-6.083,-6.0846,-6.086,-6.0671,-6.067,-6.0669,0,0,-6.0711,-6.071,-6.0757,-6.076,-6.0762,-6.0746,-6.0758,-6.0751,-6.0745,-6.079,-6.0748,-6.0772,-6.0811,-6.0814,-6.0821,-6.0929,-6.0896,-6.0936,-6.1004,-6.104,-6.1053,-6.1065,-6.1104,-6.1118,-6.0944,-6.0945,-6.0945,0,-6.0772,-6.0816,-6.0785,-6.0822,-6.0832,-6.0782,-6.0829,-6.0833,-6.0841,-6.0849,-6.0818,-6.0866,-6.0864,-6.0923,-6.095,-6.0957,-6.0969,-6.0937,-6.1054,-6.1065,-6.1076,-6.1113,-6.1127,-6.095,-6.0949,-6.0949,-6.0948,0,-6.0891,-6.0922,-6.096,-6.097,-6.0984,-6.1026,-6.1002,-6.102,-6.0996,-6.0984,-6.1031,-6.1026,-6.1044,-6.1056,-6.1033,-6.1113,-6.1096,-6.106,-6.1005,-6.1098,-6.1132,-6.1145,-6.0957,-6.0955,-6.0954,-6.0952,0,0,-6.1045,-6.1039,-6.1053,-6.1057,-6.1057,-6.108,-6.112,-6.1138,-6.1154,-6.1162,-6.1194,-6.1228,-6.1196,-6.1203,-6.118,-6.1212,-6.1299,-6.1172,-6.1172,-6.1196,-6.1387,-6.1414,-6.1431,-6.1277,-6.1279,-6.1281,-6.1387,0,-6.1148,-6.1217,-6.119,-6.1261,-6.1289,-6.1243,-6.1277,-6.1281,-6.127,-6.1292,-6.128,-6.1306,-6.126,-6.1265,-6.1294,-6.1282,-6.1337,-6.1274,-6.1307,-6.1308,-6.1308,-6.1448,-6.1477,-6.1577,-6.14,-6.1402,-6.1404,0,-6.1278,-6.1292,-6.1366,-6.1361,-6.1372,-6.1404,-6.1419,-6.144,-6.1443,-6.1433,-6.1443,-6.1413,-6.1452,-6.1398,-6.145,-6.1409,-6.142,-6.1417,-6.142,-6.1422,-6.1362,-6.1455,-6.1608,-6.1623,-6.1424,-6.1422,-6.1421,0,-6.1383,-6.142,-6.1469,-6.1475,-6.147,-6.1494,-6.1493,-6.1493,-6.1506,-6.1519,-6.1527,-6.1544,-6.1553,-6.1567,-6.1543,-6.1505,-6.1599,-6.1542,-6.1592,-6.1593,-6.1614,-6.1613,-6.1772,-6.1621,-6.1621,-6.1621,-6.162,0,-6.1502,-6.1548,-6.1517,-6.1547,-6.1598,-6.1568,-6.1619,-6.1613,-6.1614,-6.1642,-6.1602,-6.1629,-6.1595,-6.1619,-6.16,-6.1647,-6.1652,-6.1645,-6.1639,-6.1649,-6.165,-6.1656,-6.1649,-6.1625,-6.1624,-6.1623,-6.1622,0,-6.1628,-6.1608,-6.1659,-6.1651,-6.165,-6.1689,-6.1682,-6.1709,-6.1696,-6.1732,-6.1739,-6.1719,-6.1745,-6.1722,-6.1747,-6.1734,-6.1797,-6.1781,-6.1796,-6.1792,-6.1843,-6.1839,-6.2012,-6.2033,-6.1869,-6.187,-6.1872,0,-6.1705,-6.174,-6.1737,-6.1753,-6.1755,-6.1782,-6.1795,-6.1766,-6.1782,-6.1788,-6.1815,-6.1838,-6.1855,-6.1898,-6.1886,-6.1905,-6.1889,-6.1949,-6.1892,-6.19,-6.1891,-6.1889,-6.1893,-6.196,-6.1962,-6.1964,-6.1965,0,-6.1844,-6.1833,-6.1854,-6.1872,-6.189,-6.1902,-6.1912,-6.1927,-6.1898,-6.1917,-6.1944,-6.1957,-6.1983,-6.2006,-6.2021,-6.2019,-6.1988,-6.1983,-6.1996,-6.2006,-6.2013,-6.201,-6.1828,-6.1979,-6.1978,-6.1977,-6.1976,-6.1975,-6.1948,-6.1978,-6.198,-6.2005,-6.201,-6.202,-6.2045,-6.2036,-6.2058,-6.2078,-6.2059,-6.2092,-6.2094,-6.2111,-6.2114,-6.2138,-6.2114,-6.2132,-6.2136,-6.2141,-6.2149,-6.2009,-6.2141,-6.214,-6.214,-6.214,-6.2139,0,-6.2085,-6.2085,-6.2109,-6.2124,-6.2144,-6.2113,-6.2122,-6.214,-6.217,-6.2175,-6.2193,-6.2224,-6.2246,-6.2236,-6.2255,-6.2277,-6.2263,-6.2284,-6.2282,-6.2282,-6.217,-6.2157,-6.2295,-6.2295,-6.2295,-6.2295,-6.2295,-6.2295,-6.2159,-6.2208,-6.2198,-6.2248,-6.2247,-6.2279,-6.2287,-6.2296,-6.23,-6.2337,-6.2356,-6.2349,-6.2348,-6.2368,-6.2387,-6.2384,-6.2393,-6.2419,-6.241,-6.2305,-6.229,-6.2275,-6.2263,-6.2421,-6.2421,-6.252,-6.2521,-6.2522]}]]